Lancaster, SC

11:05 PM EDT on April 27, 2017 (GMT -0400)
Lancaster County-McWhirter

Weather History for KLKR - September, 2013

Change the Weather History Date:

Thursday, September 26, 2013

  Actual Average (KUZA) Record (KUZA)
Temperature  
Mean Temperature 67 °F -  
Max Temperature 77 °F 80 °F 93 °F (1961)
Min Temperature 57 °F 59 °F 43 °F (1950)
Cooling Degree Days 2    
Growing Degree Days 17 (Base 50)    
Moisture  
Dew Point 59 °F    
Average Humidity 83    
Maximum Humidity 100    
Minimum Humidity 44    
Precipitation  
Precipitation 0.04 in - - ()
Sea Level Pressure  
Sea Level Pressure 29.95 in    
Wind  
Wind Speed 2 mph (NNE)    
Max Wind Speed 13 mph    
Max Gust Speed 16 mph    
Visibility 7 miles    
Events Rain    
Averages and records for this station are not official NWS values.
T = Trace of Precipitation, MM = Missing Value Source: NWS Daily Summary

Daily Weather History Graph

Daily Weather History Graph

Search for Another Location

Airport or City:

Trip Planner

Search our weather history database for the weather conditions in past years. The results will help you decide how hot, cold, wet, or windy it might be!

Date:

Astronomy

Sep. 26, 2013 Rise Set
Actual Time 7:14 AM EDT 7:14 PM EDT
Civil Twilight 6:49 AM EDT 7:39 PM EDT
Nautical Twilight 6:20 AM EDT 8:08 PM EDT
Astronomical Twilight 5:50 AM EDT 8:38 PM EDT
Moon No Moon Rise 1:53 PM EDT (9/26)
Length of Visible Light 12h 49m
Length of Day
11h 59m
Waning Gibbous, 55% of the Moon is Illuminated
Sep 26
Waning Gibbous
Sep 26
Last Quarter
Oct 4
New
Oct 11
First Quarter
Oct 18
Full

Hourly Weather History & Observations

Time (EDT) Temp. Dew Point Humidity Pressure Visibility Wind Dir Wind Speed Gust Speed Precip Events Conditions
12:15 AM 62.6 °F 62.6 °F 100% 29.91 in 3.0 mi Calm Calm - 0.01 in Rain Light Rain
12:35 AM 62.6 °F 62.6 °F 100% 29.91 in 2.0 mi Calm Calm - 0.01 in Rain Light Rain
12:55 AM 62.6 °F 62.6 °F 100% 29.91 in 2.0 mi Calm Calm - 0.01 in Rain Light Rain
1:15 AM 62.6 °F 62.6 °F 100% 29.90 in 1.5 mi Calm Calm - N/A Rain Light Rain
1:35 AM 62.6 °F 62.6 °F 100% 29.90 in 1.5 mi Calm Calm - 0.01 in Rain Light Rain
1:55 AM 62.6 °F 62.6 °F 100% 29.90 in 1.2 mi Calm Calm - 0.01 in Rain Light Rain
2:15 AM 62.6 °F 62.6 °F 100% 29.90 in 2.0 mi Calm Calm - N/A   Overcast
2:35 AM 62.6 °F 62.6 °F 100% 29.90 in 6.0 mi NNE 3.5 mph - N/A   Mostly Cloudy
2:55 AM 62.6 °F 62.6 °F 100% 29.90 in 2.5 mi Calm Calm - 0.01 in Rain Light Rain
3:15 AM 62.6 °F 62.6 °F 100% 29.90 in 1.5 mi Calm Calm - N/A Rain Light Rain
3:35 AM 62.6 °F 62.6 °F 100% 29.90 in 2.5 mi Calm Calm - N/A   Overcast
3:55 AM 62.6 °F 62.6 °F 100% 29.90 in 2.0 mi Calm Calm - N/A   Overcast
4:15 AM 62.6 °F 62.6 °F 100% 29.90 in 2.5 mi Calm Calm - N/A   Mostly Cloudy
4:35 AM 62.6 °F 62.6 °F 100% 29.90 in 2.5 mi Calm Calm - N/A   Scattered Clouds
4:55 AM 62.6 °F 62.6 °F 100% 29.89 in 1.2 mi Calm Calm - N/A   Scattered Clouds
5:15 AM 60.8 °F 60.8 °F 100% 29.90 in 1.2 mi Calm Calm - N/A   Scattered Clouds
5:35 AM 60.8 °F 60.8 °F 100% 29.90 in 1.0 mi Calm Calm - N/A   Mostly Cloudy
5:55 AM 60.8 °F 60.8 °F 100% 29.90 in 1.2 mi Calm Calm - N/A   Overcast
6:15 AM 60.8 °F 60.8 °F 100% 29.90 in 2.0 mi Calm Calm - N/A   Overcast
6:35 AM 62.6 °F 62.6 °F 100% 29.91 in 3.0 mi North 4.6 mph - N/A   Overcast
6:55 AM 60.8 °F 60.8 °F 100% 29.92 in 3.0 mi NNE 3.5 mph - N/A   Mostly Cloudy
7:15 AM 60.8 °F 60.8 °F 100% 29.92 in 1.5 mi Calm Calm - N/A   Scattered Clouds
7:35 AM 59.0 °F 59.0 °F 100% 29.92 in 0.8 mi Calm Calm - N/A   Mist
7:55 AM 59.0 °F 59.0 °F 100% 29.93 in 0.8 mi Calm Calm - N/A   Mist
8:15 AM 59.0 °F 59.0 °F 100% 29.93 in 1.0 mi Calm Calm - N/A   Clear
8:35 AM 60.8 °F 60.8 °F 100% 29.94 in 3.0 mi NNE 5.8 mph - N/A   Clear
8:55 AM 62.6 °F 62.6 °F 100% 29.95 in 5.0 mi NNE 6.9 mph - N/A   Scattered Clouds
9:15 AM 64.4 °F 64.4 °F 100% 29.96 in 8.0 mi North 6.9 mph - N/A   Mostly Cloudy
9:35 AM 64.4 °F 62.6 °F 94% 29.96 in 9.0 mi NNE 5.8 mph - N/A   Scattered Clouds
9:55 AM 66.2 °F 64.4 °F 94% 29.97 in 10.0 mi North 5.8 mph - N/A   Clear
10:15 AM 68.0 °F 62.6 °F 83% 29.97 in 10.0 mi NNE 3.5 mph - N/A   Clear
10:35 AM 69.8 °F 60.8 °F 73% 29.97 in 10.0 mi North 4.6 mph - 0.01 in   Clear
10:55 AM 71.6 °F 60.8 °F 69% 29.97 in 10.0 mi NNE 4.6 mph - 0.01 in   Clear
11:15 AM 71.6 °F 59.0 °F 64% 29.97 in 10.0 mi NNE 6.9 mph - N/A   Clear
11:35 AM 71.6 °F 62.6 °F 73% 29.97 in 10.0 mi NNE 5.8 mph - N/A   Scattered Clouds
11:55 AM 71.6 °F 59.0 °F 64% 29.97 in 10.0 mi NNE 8.1 mph - N/A   Partly Cloudy
12:15 PM 71.6 °F 57.2 °F 60% 29.97 in 10.0 mi NNE 9.2 mph - N/A   Mostly Cloudy
12:35 PM 73.4 °F 55.4 °F 53% 29.97 in 10.0 mi North 8.1 mph - N/A   Scattered Clouds
12:55 PM 75.2 °F 53.6 °F 47% 29.96 in 10.0 mi North 6.9 mph - N/A   Partly Cloudy
1:15 PM 75.2 °F 53.6 °F 47% 29.96 in 10.0 mi NNE 5.8 mph - N/A   Mostly Cloudy
1:35 PM 75.2 °F 55.4 °F 50% 29.95 in 10.0 mi NNE 8.1 mph - N/A   Scattered Clouds
1:55 PM 77.0 °F 55.4 °F 47% 29.95 in 10.0 mi NNE 10.4 mph - N/A   Partly Cloudy
2:15 PM 75.2 °F 57.2 °F 53% 29.95 in 10.0 mi NNE 9.2 mph - N/A   Scattered Clouds
2:35 PM 77.0 °F 57.2 °F 50% 29.94 in 10.0 mi North 9.2 mph 16.1 mph N/A   Mostly Cloudy
2:55 PM 77.0 °F 55.4 °F 47% 29.94 in 10.0 mi North 5.8 mph - N/A   Partly Cloudy
3:15 PM 77.0 °F 55.4 °F 47% 29.94 in 10.0 mi NNW 9.2 mph - N/A   Partly Cloudy
3:35 PM 77.0 °F 57.2 °F 50% 29.94 in 10.0 mi North 9.2 mph - N/A   Partly Cloudy
3:55 PM 77.0 °F 55.4 °F 47% 29.94 in 10.0 mi NNE 12.7 mph - N/A   Scattered Clouds
4:15 PM 75.2 °F 55.4 °F 50% 29.94 in 10.0 mi North 8.1 mph - N/A   Partly Cloudy
4:35 PM 77.0 °F 55.4 °F 47% 29.94 in 10.0 mi North 10.4 mph - N/A   Clear
4:55 PM 77.0 °F 53.6 °F 44% 29.94 in 10.0 mi NNE 10.4 mph 16.1 mph N/A   Clear
5:15 PM 77.0 °F 53.6 °F 44% 29.95 in 10.0 mi North 9.2 mph - N/A   Clear
5:35 PM 77.0 °F 53.6 °F 44% 29.96 in 10.0 mi North 6.9 mph - N/A   Clear
5:55 PM 75.2 °F 53.6 °F 47% 29.96 in 10.0 mi North 5.8 mph - N/A   Clear
6:15 PM 75.2 °F 55.4 °F 50% 29.96 in 10.0 mi North 8.1 mph - N/A   Clear
6:35 PM 73.4 °F 55.4 °F 53% 29.97 in 10.0 mi NNE 5.8 mph - N/A   Clear
6:55 PM 68.0 °F 60.8 °F 78% 29.97 in 10.0 mi Calm Calm - N/A   Clear
7:15 PM 64.4 °F 60.8 °F 88% 29.98 in 10.0 mi Calm Calm - N/A   Clear
7:35 PM 62.6 °F 62.6 °F 100% 29.98 in 10.0 mi Calm Calm - N/A   Clear
7:55 PM 60.8 °F 60.8 °F 100% 29.98 in 10.0 mi Calm Calm - N/A   Clear
8:15 PM 59.0 °F 59.0 °F 100% 29.99 in 10.0 mi Calm Calm - N/A   Clear
8:35 PM 59.0 °F 59.0 °F 100% 29.99 in 10.0 mi Calm Calm - N/A   Clear
8:55 PM 59.0 °F 59.0 °F 100% 30.00 in 10.0 mi Calm Calm - N/A   Clear
9:15 PM 59.0 °F 59.0 °F 100% 30.01 in 10.0 mi Calm Calm - N/A   Clear
9:35 PM 59.0 °F 59.0 °F 100% 30.02 in 10.0 mi Calm Calm - N/A   Clear
9:55 PM 59.0 °F 59.0 °F 100% 30.02 in 10.0 mi Calm Calm - N/A   Clear
10:15 PM 59.0 °F 59.0 °F 100% 30.03 in 10.0 mi Calm Calm - N/A   Clear
10:35 PM 57.2 °F 57.2 °F 100% 30.03 in 10.0 mi Calm Calm - N/A   Clear
10:55 PM 57.2 °F 57.2 °F 100% 30.03 in 10.0 mi Calm Calm - N/A   Clear
11:15 PM 57.2 °F 57.2 °F 100% 30.03 in 10.0 mi Calm Calm - N/A   Clear
11:35 PM 57.2 °F 57.2 °F 100% 30.03 in 10.0 mi Calm Calm - N/A   Clear
11:55 PM 57.2 °F 57.2 °F 100% 30.04 in 10.0 mi Calm Calm - N/A   Clear